[[{"header":{"parameterUnit":"m.s-1","parameterCategory":1,"la1":30.2991,"la2":30.254,"lo1":-89.0895,"lo2":-89.0444,"dy":0.0017,"dx":0.0017,"nx":28,"ny":28,"refTime":"2026-01-08T03:00:00:Z","depth":0,"parameterNumber":2,"parameterNumberName":"U-component_of_WINDS"},"data":[0,0,0,0,0,0,0,0,0,0,0,0,0,0,0,0,0,0,0,0,0,0,0,0,0,0,0,0,0,0,0,0,0,0,0,0,0,0,0,0,0,0,0,0,0,0,0,0,0,0,0,0,0,0,0,0,0,0,0.9846,0.9846,0,0.9884,0.9884,0.9885,0.9917,0.9918,0.9918,0.9918,0.9958,0.9958,0.9959,0,0,0,0,0,0,0,0,0,0,0,0,0,0.9802,0.9803,0.9846,0.9846,0.9847,0.9884,0.9884,0.9885,0.9917,0.9918,0.9918,0.9919,0.9957,0.9958,0.9959,0,0,0,0,0,0,0,0,0,0,0,0,0,0.9829,0.9803,0.9846,0.9867,0.987,0.9884,0.9885,0.9885,0.9917,0.9918,0.9918,0.9919,0.9957,0.9958,0.9959,0.9955,0,0,0.9962,0.9963,0,0,0,0,0,0,0,0,0.9827,0.983,0.9864,0.9866,0.9868,0.9897,0.9884,0.9909,0.9917,0.9899,0.9918,0.9919,0.9937,0.994,0.9946,0.9957,0.9959,0.9963,0.9963,0.9964,0.9964,0,0,0,0,0,0,0,0.9825,0.9829,0.9861,0.9864,0.9867,0.9876,0.988,0.9888,0.9915,0.9901,0.9903,0.9907,0.9938,0.9945,0.9947,0.9959,0.9963,0.9964,0.9964,0.9965,0.9971,0.9971,0,0,0,0,0,0,0.982,0.9827,0.986,0.9862,0.9849,0.9876,0.9881,0.9887,0.9915,0.9919,0.9907,0.9909,0.9942,0.9946,0.9948,0.9947,0.9964,0.9965,0.9965,0.9972,0.9971,0.9971,0,0,0,0,0,0,0.9819,0.9823,0.9858,0.9845,0.9851,0.9876,0.9883,0.9887,0.9894,0.9919,0.9924,0.9908,0.9943,0.9947,0.9954,0.9948,0.9965,0.9966,0.9972,0.9972,0.9971,0.9942,0,0,0,0,0,0,0.9818,0.9822,0.982,0.9845,0.9851,0.9862,0.9882,0.9888,0.9895,0.9898,0.9922,0.9926,0.9944,0.9952,0.9955,0.995,0.9967,0.9973,0.9972,0.9971,0.9944,0.9941,0.9938,0,0,0,0,0,0.9816,0.981,0.982,0.9824,0.9849,0.9862,0.9865,0.9886,0.9895,0.9894,0.991,0.9925,0.9949,0.9952,0.9956,0.9952,0.9973,0.9972,0.9971,0.9945,0.9941,0.9938,0,0,0,0,0,0,0.9784,0.9814,0.9825,0.9827,0.9842,0.9867,0.9866,0.9881,0.9893,0.9895,0.992,0.9925,0.9929,0.9941,0.9945,0.995,0.9963,0.9963,0.9942,0.9939,0.9936,0.9933,0.9968,0,0,0,0,0,0.9777,0.9784,0.981,0.981,0.9816,0.984,0.9846,0.9861,0.9877,0.9883,0.99,0.9916,0.9927,0.9933,0.9945,0.9946,0.9952,0.9945,0.9942,0.994,0.9939,0.9943,0.994,0.9968,0.9968,0.9968,0,0,0.9762,0.978,0.9783,0.9804,0.9817,0.9825,0.9845,0.9852,0.9858,0.9884,0.9892,0.9906,0.9925,0.9929,0.9932,0.9939,0.9933,0.9938,0.9936,0.9937,0.9941,0.9939,0.9936,0.9967,0.9967,0.9967,0,0,0.9741,0.9754,0.9756,0.9769,0.9789,0.9805,0.9805,0.9829,0.9839,0.9848,0.9868,0.9876,0.9894,0.9908,0.9917,0.9902,0.9917,0.9905,0.989,0.9893,0.9891,0.9889,0.9885,0.9884,0.9905,0.9905,0.9905,0,0.972,0.9733,0.9755,0.9761,0.977,0.9795,0.9798,0.9809,0.9832,0.9838,0.9846,0.987,0.9885,0.9893,0.989,0.9896,0.9898,0.9903,0.989,0.9888,0.9887,0.9883,0.9882,0.9903,0.9903,0.9903,0.9904,0,0.9708,0.9716,0.9715,0.9737,0.9746,0.975,0.9774,0.978,0.9795,0.981,0.982,0.9838,0.9854,0.9858,0.9871,0.9869,0.9873,0.9885,0.9899,0.9882,0.9879,0.9878,0.9901,0.9902,0.9902,0.9902,0,0,0.9665,0.9701,0.97,0.9711,0.9736,0.9743,0.9749,0.9766,0.9771,0.9787,0.9793,0.9809,0.9821,0.9831,0.9847,0.9849,0.9839,0.9861,0.9862,0.9857,0.9839,0.983,0.9828,0.9849,0.9849,0.9848,0.9838,0,0.9648,0.966,0.9681,0.9687,0.9696,0.9721,0.9726,0.9743,0.9758,0.9768,0.9785,0.9796,0.981,0.9817,0.9821,0.9839,0.9835,0.984,0.9856,0.9856,0.985,0.9826,0.9817,0.9805,0.9837,0.9836,0.9836,0,0.9629,0.9644,0.965,0.9676,0.9681,0.9685,0.9703,0.9712,0.9732,0.9743,0.9756,0.9773,0.9782,0.9795,0.9809,0.9811,0.9819,0.983,0.983,0.9832,0.9845,0.9829,0.9802,0.9801,0.9835,0.9835,0.9835,0,0.9599,0.962,0.9627,0.9636,0.9666,0.9669,0.9682,0.9702,0.9711,0.9727,0.9733,0.975,0.9759,0.9772,0.9794,0.9801,0.9806,0.982,0.9816,0.9815,0.9815,0.9815,0.979,0.982,0.982,0.982,0.982,0,0.9578,0.9581,0.9614,0.9619,0.9624,0.9649,0.9653,0.9668,0.9686,0.9695,0.9718,0.9725,0.9754,0.9765,0.9783,0.9792,0.9796,0.9806,0.981,0.9804,0.9803,0.9809,0.9811,0.982,0.982,0.982,0.982,0,0.9544,0.9567,0.9576,0.9604,0.9612,0.9614,0.9639,0.9645,0.9662,0.9673,0.9677,0.9704,0.9719,0.9742,0.9764,0.9776,0.9782,0.979,0.9775,0.9778,0.9773,0.9774,0.9752,0.9751,0.9781,0.9781,0.978,0,0.9529,0.9532,0.9561,0.9569,0.9581,0.9592,0.9602,0.9627,0.9637,0.9661,0.9664,0.9681,0.9695,0.9718,0.974,0.9757,0.9766,0.9757,0.9768,0.9762,0.9766,0.9766,0.9767,0.9754,0.9754,0.9753,0.9753,0,0.95,0.9512,0.9525,0.9542,0.9553,0.9568,0.9585,0.959,0.9619,0.9628,0.9644,0.9655,0.9678,0.9695,0.9716,0.973,0.9747,0.975,0.975,0.9743,0.9735,0.974,0.9769,0.975,0.975,0.975,0.9751,0.9751,0.9476,0.9481,0.9502,0.9517,0.9532,0.9547,0.9554,0.9573,0.9586,0.9607,0.9621,0.9636,0.9658,0.9687,0.9701,0.9714,0.9721,0.9721,0.9721,0.9721,0.9719,0.9733,0.9718,0.9718,0.9718,0.9718,0.9718,0,0.9449,0.9465,0.9478,0.95,0.9512,0.9527,0.9546,0.9555,0.9568,0.9587,0.9601,0.962,0.9637,0.9661,0.968,0.9686,0.9694,0.969,0.969,0.9693,0.9711,0.9709,0.9683,0.9683,0.9683,0.9683,0.9683,0.9683,0.9436,0.9445,0.946,0.9477,0.9493,0.9508,0.9518,0.9532,0.9547,0.9567,0.9582,0.9597,0.9619,0.964,0.9657,0.9664,0.967,0.9663,0.9672,0.9688,0.9691,0.9694,0.9693,0.9664,0.9664,0.9654,0.9654,0.9653]},{"header":{"parameterUnit":"m.s-1","parameterCategory":1,"la1":30.2991,"la2":30.254,"lo1":-89.0895,"lo2":-89.0444,"dy":0.0017,"dx":0.0017,"nx":28,"ny":28,"refTime":"2026-01-08T03:00:00:Z","depth":0,"parameterNumber":3,"parameterNumberName":"V-component_of_WINDS"},"data":[0,0,0,0,0,0,0,0,0,0,0,0,0,0,0,0,0,0,0,0,0,0,0,0,0,0,0,0,0,0,0,0,0,0,0,0,0,0,0,0,0,0,0,0,0,0,0,0,0,0,0,0,0,0,0,0,0,0,2.2531,2.2531,0,2.2546,2.2547,2.2547,2.2557,2.2557,2.2557,2.2557,2.2572,2.2572,2.2572,0,0,0,0,0,0,0,0,0,0,0,0,0,2.2507,2.2508,2.2531,2.2531,2.2531,2.2546,2.2547,2.2547,2.2557,2.2557,2.2557,2.2557,2.2571,2.2572,2.2572,0,0,0,0,0,0,0,0,0,0,0,0,0,2.252,2.2508,2.2531,2.2538,2.2539,2.2546,2.2547,2.2547,2.2557,2.2557,2.2557,2.2557,2.2571,2.2572,2.2572,2.2573,0,0,2.2574,2.2574,0,0,0,0,0,0,0,0,2.2519,2.252,2.2537,2.2538,2.2539,2.255,2.2544,2.2556,2.2557,2.255,2.2557,2.2557,2.2564,2.2565,2.2568,2.2574,2.2574,2.2574,2.2574,2.2574,2.2574,0,0,0,0,0,0,0,2.2518,2.252,2.2537,2.2537,2.2538,2.254,2.2542,2.2546,2.2556,2.2551,2.2552,2.2553,2.2565,2.2567,2.2568,2.2574,2.2574,2.2574,2.2574,2.2575,2.258,2.2579,0,0,0,0,0,0,2.2516,2.2519,2.2536,2.2537,2.2529,2.254,2.2542,2.2546,2.2556,2.2558,2.2553,2.2554,2.2567,2.2568,2.2569,2.2569,2.2574,2.2575,2.2575,2.258,2.258,2.2579,0,0,0,0,0,0,2.2516,2.2518,2.2536,2.2528,2.2531,2.2541,2.2545,2.2546,2.2549,2.2558,2.256,2.2554,2.2567,2.2568,2.2572,2.257,2.2575,2.2575,2.258,2.258,2.258,2.2571,0,0,0,0,0,0,2.2515,2.2518,2.2519,2.2528,2.2531,2.2539,2.2545,2.2547,2.255,2.2551,2.256,2.2561,2.2567,2.2571,2.2572,2.2571,2.2576,2.258,2.258,2.258,2.2571,2.257,2.257,0,0,0,0,0,2.2514,2.2516,2.2519,2.2521,2.2533,2.2539,2.2541,2.2548,2.255,2.2551,2.2556,2.2561,2.257,2.2571,2.2573,2.2571,2.258,2.258,2.258,2.2572,2.2571,2.257,0,0,0,0,0,0,2.2505,2.2517,2.2521,2.2525,2.2531,2.2541,2.2542,2.2546,2.2551,2.2552,2.256,2.2562,2.2564,2.2568,2.2569,2.2572,2.2576,2.2575,2.2569,2.2568,2.2567,2.2566,2.2576,0,0,0,0,0,2.2504,2.2509,2.2518,2.2521,2.2524,2.2532,2.2535,2.254,2.2546,2.2549,2.2555,2.256,2.2564,2.2566,2.257,2.2572,2.2573,2.2572,2.2571,2.257,2.257,2.2569,2.2568,2.2578,2.2578,2.2578,0,0,2.2501,2.2508,2.251,2.252,2.2525,2.2529,2.2535,2.2539,2.2541,2.2549,2.2553,2.2557,2.2563,2.2565,2.2567,2.2569,2.2567,2.2569,2.2569,2.2569,2.2569,2.2568,2.2567,2.2578,2.2578,2.2578,0,0,2.2498,2.2504,2.2507,2.2511,2.2519,2.2524,2.2525,2.2533,2.2537,2.254,2.2546,2.2549,2.2556,2.2559,2.2562,2.2558,2.2562,2.2559,2.2555,2.2554,2.2553,2.2553,2.2551,2.255,2.2559,2.2559,2.2559,0,2.2493,2.25,2.2507,2.2511,2.2514,2.2521,2.2524,2.2528,2.2536,2.2538,2.254,2.2548,2.2553,2.2555,2.2554,2.2556,2.2556,2.2558,2.2553,2.2553,2.2552,2.255,2.2549,2.2559,2.2559,2.2559,2.2559,0,2.2493,2.2497,2.2498,2.2506,2.251,2.2512,2.2519,2.2522,2.2526,2.253,2.2533,2.2539,2.2544,2.2545,2.2549,2.2547,2.2548,2.2552,2.2556,2.255,2.2548,2.2548,2.2558,2.2558,2.2558,2.2558,0,0,2.2485,2.2496,2.2497,2.25,2.2508,2.2511,2.2513,2.2518,2.2519,2.2524,2.2526,2.2531,2.2534,2.2537,2.2541,2.2541,2.2536,2.2544,2.2544,2.2542,2.2533,2.253,2.2529,2.2539,2.2539,2.2539,2.2533,0,2.2483,2.2488,2.2494,2.2497,2.25,2.2507,2.2508,2.2513,2.2517,2.2519,2.2524,2.2527,2.2531,2.2532,2.2532,2.2537,2.2534,2.2537,2.2539,2.2539,2.2537,2.2529,2.2526,2.252,2.2532,2.2532,2.2532,0,2.2481,2.2485,2.2489,2.2495,2.2497,2.2498,2.2502,2.2505,2.251,2.2512,2.2515,2.252,2.2521,2.2525,2.2526,2.2528,2.2529,2.2531,2.2531,2.2531,2.2535,2.2528,2.2518,2.2517,2.2531,2.2531,2.2531,0,2.2474,2.2481,2.2483,2.2486,2.2494,2.2494,2.2497,2.2502,2.2504,2.2508,2.2509,2.2512,2.2514,2.2516,2.252,2.2523,2.2521,2.2525,2.2522,2.2522,2.2522,2.2522,2.2512,2.2523,2.2523,2.2523,2.2523,0,2.2471,2.2472,2.248,2.2482,2.2483,2.2489,2.249,2.2494,2.2497,2.2499,2.2504,2.2505,2.2512,2.2513,2.2517,2.2516,2.2517,2.2519,2.252,2.2518,2.2518,2.2519,2.2519,2.2523,2.2523,2.2523,2.2523,0,2.2463,2.2469,2.2472,2.2479,2.248,2.2481,2.2486,2.2487,2.2491,2.2492,2.2493,2.2499,2.25,2.2505,2.2508,2.2511,2.2509,2.2511,2.2508,2.2508,2.2505,2.2505,2.2495,2.2493,2.2506,2.2506,2.2506,0,2.2461,2.2462,2.2468,2.247,2.2473,2.2475,2.2477,2.2483,2.2484,2.2489,2.2489,2.2491,2.2493,2.2495,2.2499,2.2501,2.2503,2.2499,2.2503,2.2501,2.2502,2.2501,2.2501,2.2498,2.2498,2.2498,2.2498,0,2.2455,2.2457,2.246,2.2463,2.2466,2.2468,2.2472,2.2472,2.2478,2.248,2.2481,2.2483,2.2486,2.2487,2.2489,2.2492,2.2495,2.2496,2.2495,2.2494,2.2491,2.2492,2.2505,2.2496,2.2496,2.2497,2.2497,2.2497,2.245,2.245,2.2455,2.2457,2.246,2.2462,2.2463,2.2467,2.2468,2.2471,2.2474,2.2475,2.2478,2.2481,2.2483,2.2483,2.2485,2.2485,2.2484,2.2484,2.2483,2.2491,2.2484,2.2484,2.2484,2.2484,2.2484,0,2.2443,2.2446,2.2448,2.2452,2.2454,2.2457,2.246,2.2461,2.2462,2.2465,2.2466,2.2467,2.2469,2.2472,2.2473,2.2473,2.2474,2.2473,2.2473,2.2473,2.2481,2.2482,2.2471,2.2471,2.2471,2.2471,2.2471,2.2471,2.2441,2.2442,2.2444,2.2446,2.2448,2.245,2.2451,2.2453,2.2455,2.2456,2.2457,2.2459,2.2461,2.2463,2.2463,2.2464,2.2464,2.2462,2.2463,2.2471,2.2472,2.2474,2.2474,2.2462,2.2462,2.2454,2.2454,2.2454]}]]